Location: Çayiçi
(36.4667°N, 30.2333°E)
Time: 01:53:26
(UTC+00:00)

Cosmos 841 Rocket - Pass Details

Date: 09 February 2023
Orbit: 746 x 770 km, 74.0° (Epoch: 01 April)

Event Time Altitude Azimuth Distance (km) Brightness Sun altitude
Rises 16:17:23 0° 341° (NNW) 3,247 6.8 -9.4°
Reaches altitude 10° 16:19:47 10° 342° (NNW) 2,314 6.1 -9.9°
Maximum altitude 16:25:03 87° 253° (WSW) 771 3.5 -10.9°
Drops below altitude 10° 16:30:15 10° 165° (SSE) 2,286 5.9 -12.0°
Sets 16:32:35 0° 165° (SSE) 3,204 6.7 -12.4°
